Regional Weather Roundup
Issued by NWS Mobile, AL

Home | Current Version | Previous Version | Text Only | Print | Product List | Glossary On
Versions: 1 2 3 4 5 6 7 8 9 10 11 12 13 14 15 16 17 18 19 20 21 22 23 24 25 26 27 28 29 30 31 32 33 34 35 36 37 38 39 40 41 42 43 44 45 46 47 48 49 50
000
ASUS44 KMOB 061112
RWRMOB
REGIONAL WEATHER ROUNDUP
NATIONAL WEATHER SERVICE MOBILE AL
500 AM CST FRI MAR 06 2015

NOTE: "FAIR" INDICATES FEW OR NO CLOUDS BELOW 12,000 FEET WITH NO
      SIGNIFICANT WEATHER AND/OR OBSTRUCTIONS TO VISIBILITY.

  * THESE STATIONS ARE PART OF THE UNIVERSITY OF SOUTH ALABAMA
    MESONET AND ARE NOT UNDER NWS OR FAA QUALITY CONTROL.

ALZ061>064-061200-
COASTAL ALABAMA

CITY           SKY/WX    TMP DP  RH WIND       PRES   REMARKS
MOBILE REG APT PTCLDY    27  19  72 N18G24    30.40R WCI  14
BROOKLEY FIELD PTCLDY    30  22  72 N14       30.41R WCI  19
USA CAMPUS*      N/A     28  21  74 NE6       30.40R WCI  22
DOG RIVER*     NOT AVBL


CITY           SKY/WX    TMP DP  RH WIND       PRES   REMARKS
MOUNT VERNON*    N/A     27  21  80 N9        30.43R WCI  17
SARALAND*      NOT AVBL
BAY MINETTE*   NOT AVBL
LOXLEY*          N/A     27  23  86 N16       30.38R WCI  14
ROBERTSDALE*     N/A     28  23  80 N7        30.37R WCI  21
FAIRHOPE*      NOT AVBL
ELBERTA*         N/A     28  23  80 N12       30.35R WCI  18
FOLEY*         NOT AVBL
GRAND BAY*       N/A     28  21  74 N12       30.37R WCI  18
DAUPHIN ISLND* NOT AVBL
BON SCOUR NWR* NOT AVBL
GULF SHORES    CLEAR     29  22  74 N15G21    30.36R WCI  18

$$

ALZ051>060-061200-
INTERIOR SOUTHWEST AND SOUTH CENTRAL ALABAMA

CITY           SKY/WX    TMP DP  RH WIND       PRES   REMARKS
GREENVILLE     PTCLDY    26  19  74 N12       30.37R WCI  16
EVERGREEN      PTCLDY    27  20  75 N9G17     30.40R WCI  18
CASTLEBERRY*   NOT AVBL
ATMORE*          N/A     27  23  86 N13       30.40R WCI  16
DIXIE*         NOT AVBL
ANDALUSIA/OPP  CLEAR     31  21  66 NE12G20   30.36  WCI  22
ANDALUSIA*       N/A     27  23  86 N15       30.34R WCI  15
FLORALA APT    PTCLDY    28  23  81 VRB7      30.36R WCI  21
FLORALA*         N/A     28  25  86 NE6       30.31R WCI  22

$$

FLZ001>006-061200-
WESTERN FLORIDA PANHANDLE

CITY           SKY/WX    TMP DP  RH WIND       PRES   REMARKS
PENSACOLA      PTCLDY    30  23  75 N16       30.35R WCI  19
NAS PENSACOLA  CLEAR     30  23  75 N12       30.35  WCI  20
MILTON         PTCLDY    29  22  75 N12G17    30.36  WCI  19
WHTNG S FIELD  PTCLDY    31  22  69 N13       30.37R WCI  21


CITY           SKY/WX    TMP DP  RH WIND       PRES   REMARKS
WALNUT HILL*   NOT AVBL
JAY*             N/A     27  21  80 N9        30.38R WCI  17
DUKE FIELD     PTCLDY    31  25  78 N13       30.33R WCI  21
CRESTVIEW      PTCLDY    30  24  78 N8        30.36R WCI  22
VALPARAISO     MOCLDY    32  25  75 N12       30.32R WCI  23
DESTIN         PTCLDY    34  26  72 N16G24    30.33R WCI  24

$$

MSZ076-079-061200-
INTERIOR SOUTHEAST MISSISSIPPI

CITY           SKY/WX    TMP DP  RH WIND       PRES   REMARKS
LEAKESVILLE*   NOT AVBL
AGRICOLA*      NOT AVBL

$$

MARINE OBSERVATIONS

STATION/POSITION TIME  TEMP    WIND        PRES    WAVE
                       AIR SEA DIR/SP/G            HT/PER
                 (UTC) (F)     (DEG/KT/KT) (MB)    (FT/S)
E DAUPHIN ISLAND NOT AVBL
12 S ORANGE BCH  NOT AVBL

$$

SELECTED LOCATIONS ACROSS THE REGION

CITY           SKY/WX    TMP DP  RH WIND       PRES   REMARKS
NEW ORLEANS    PTCLDY    32  22  66 N17       30.45R WCI  21
GULFPORT       PTCLDY    29  17  61 N12       30.41R WCI  19
PASCAGOULA AP  PTCLDY    29  19  66 N14       30.40R WCI  18
PASCAGOULA*    NOT AVBL
HATTIESBURG    PTCLDY    27  17  66 N8        30.47R WCI  19
LAUREL         PTCLDY    25  16  68 N10       30.47R WCI  15
MERIDIAN       PTCLDY    22  16  78 N10       30.49R WCI  11
JACKSON        PTCLDY    24  17  74 N13       30.52R WCI  12
MONTGOMERY     PTCLDY    26  19  74 N8        30.42R WCI  18
TROY           PTCLDY    28  21  75 N12       30.37R WCI  18
KINSTON*       NOT AVBL
GENEVA*        NOT AVBL
ASHFORD*         N/A     27  23  86 N15       30.34R WCI  15
DOTHAN         PTCLDY    30  24  78 N13       30.36R WCI  20
PANAMA CITY    PTCLDY    36  29  75 N9        30.30R

$$



USA.gov is the U.S. government's official web portal to all federal, state and local government web resources and services.